, AK

(GMT )
Tin City

Weather History for PATC - July, 2013

Change the Weather History Date:

Tuesday, July 2, 2013

  Actual Average Record
Temperature  
Mean Temperature 46 °F -  
Max Temperature 48 °F 46 °F 66 °F (2004)
Min Temperature 44 °F 39 °F 34 °F (1998)
Degree Days  
Heating Degree Days 19    
Moisture  
Dew Point 45 °F    
Average Humidity 92    
Maximum Humidity 100    
Minimum Humidity 82    
Precipitation  
Precipitation 0.19 in - - ()
Sea Level Pressure  
Sea Level Pressure 29.43 in    
Wind  
Wind Speed 7 mph (SSW)    
Max Wind Speed 17 mph    
Max Gust Speed -    
Visibility 9 miles    
Events Rain    
Averages and records for this station are not official NWS values.
T = Trace of Precipitation, MM = Missing Value Source: NWS Daily Summary

Daily Weather History Graph

Daily Weather History Graph

Search for Another Location

Airport or City:

Trip Planner

Search our weather history database for the weather conditions in past years. The results will help you decide how hot, cold, wet, or windy it might be!

Date:

Astronomy

Jul. 02, 2013 Rise Set
Actual Time 4:10 AM AKDT 2:18 AM AKDT
Civil Twilight Sun does not set Sun does not set
Nautical Twilight Sun does not set Sun does not set
Astronomical Twilight Sun does not set Sun does not set
Moon 2:27 AM AKDT (7/2) 7:59 PM AKDT (7/2)
Length of Visible Light 24h 00m
Length of Day
22h 08m
Waning Crescent, 25% of the Moon is Illuminated
Jul 2
Waning Crescent
Jul 7
New
Jul 15
First Quarter
Jul 22
Full
Jul 29
Last Quarter

Hourly Weather History & Observations

Time (AKDT) Temp. Windchill Dew Point Humidity Pressure Visibility Wind Dir Wind Speed Gust Speed Precip Events Conditions
12:46 AM 48.2 °F - 46.4 °F 93% 29.35 in 10.0 mi NNE 16.1 mph - N/A   Mostly Cloudy
12:55 AM 47.5 °F - 45.7 °F 93% 29.35 in 10.0 mi NNE 13.8 mph - N/A   Mostly Cloudy
1:55 AM 46.2 °F 39.3 °F 45.9 °F 99% 29.35 in 10.0 mi NE 17.3 mph - N/A   Mostly Cloudy
2:55 AM 46.9 °F - 46.0 °F 97% 29.36 in 10.0 mi ENE 4.6 mph - N/A   Mostly Cloudy
3:46 AM 48.2 °F - 44.6 °F 87% 29.37 in 10.0 mi SW 3.5 mph - N/A   Overcast
3:55 AM 48.2 °F - 45.1 °F 89% 29.37 in 10.0 mi WSW 2.3 mph - N/A   Overcast
4:55 AM 48.6 °F - 44.4 °F 86% 29.36 in 10.0 mi South 3.5 mph - N/A   Mostly Cloudy
5:06 AM 48.2 °F - 44.6 °F 87% 29.37 in 10.0 mi SW 4.6 mph - N/A Rain Light Rain
5:26 AM 48.2 °F - 44.6 °F 87% 29.36 in 10.0 mi South 3.5 mph - N/A Rain Light Rain Showers
5:46 AM 48.2 °F - 44.6 °F 87% 29.37 in 10.0 mi SW 2.3 mph - N/A   Mostly Cloudy
5:55 AM 47.8 °F - 44.6 °F 89% 29.37 in 10.0 mi SW 2.3 mph - N/A   Mostly Cloudy
6:55 AM 46.2 °F 42.2 °F 44.6 °F 94% 29.37 in 10.0 mi SW 8.1 mph - N/A   Mostly Cloudy
7:26 AM 46.4 °F 43.5 °F 44.6 °F 93% 29.37 in 10.0 mi WSW 5.8 mph - N/A   Overcast
7:55 AM 46.0 °F 43.1 °F 44.4 °F 94% 29.38 in 10.0 mi WSW 5.8 mph - N/A   Overcast
8:55 AM 45.9 °F - 45.0 °F 97% 29.39 in 10.0 mi Variable 2.3 mph - N/A Rain Light Rain
9:26 AM 46.4 °F 45.2 °F 44.6 °F 93% 29.39 in 2.5 mi Variable 3.5 mph - N/A Rain Rain
9:46 AM 46.4 °F 43.5 °F 44.6 °F 93% 29.39 in 3.0 mi ESE 5.8 mph - N/A Rain Light Rain
9:55 AM 46.0 °F 43.9 °F 45.5 °F 98% 29.40 in 2.5 mi ESE 4.6 mph - 0.06 in Rain Rain
10:26 AM 46.4 °F 45.2 °F 44.6 °F 93% 29.40 in 7.0 mi South 3.5 mph - N/A Rain Light Rain
10:55 AM 46.4 °F 44.3 °F 45.3 °F 96% 29.41 in 8.0 mi SSW 4.6 mph - 0.06 in Rain Light Rain
11:27 AM 46.4 °F 43.5 °F 46.4 °F 100% 29.41 in 7.0 mi South 5.8 mph - N/A Rain Light Rain
12:27 PM 46.4 °F - 44.6 °F 93% 29.42 in 10.0 mi Variable 2.3 mph - N/A   Mostly Cloudy
12:55 PM 47.1 °F - 43.5 °F 87% 29.43 in 10.0 mi SSE 3.5 mph - N/A   Mostly Cloudy
1:27 PM 48.2 °F - 42.8 °F 82% 29.43 in 10.0 mi Variable 3.5 mph - N/A Rain Light Rain Showers
1:47 PM 48.2 °F - 42.8 °F 82% 29.44 in 10.0 mi WSW 2.3 mph - N/A Rain Light Rain Showers
1:55 PM 47.5 °F - 43.2 °F 85% 29.44 in 10.0 mi WSW 3.5 mph - N/A   Overcast
2:07 PM 48.2 °F - 42.8 °F 82% 29.44 in 10.0 mi WSW 3.5 mph - N/A Rain Light Rain Showers
2:47 PM 46.4 °F 41.1 °F 44.6 °F 93% 29.45 in 10.0 mi SSW 11.5 mph - N/A Rain Light Rain Showers
2:55 PM 45.3 °F 40.6 °F 44.6 °F 97% 29.45 in 4.0 mi South 9.2 mph - 0.00 in Rain Light Rain Showers
3:07 PM 44.6 °F 40.7 °F 44.6 °F 100% 29.46 in 2.5 mi SSW 6.9 mph - N/A Rain Light Rain Showers
3:27 PM 44.6 °F 42.2 °F 44.6 °F 100% 29.46 in 3.0 mi WSW 4.6 mph - N/A Rain Light Rain
3:47 PM 44.6 °F 43.1 °F 44.6 °F 100% 29.46 in 7.0 mi Variable 3.5 mph - N/A Rain Light Rain
3:55 PM 45.1 °F 43.7 °F 44.6 °F 98% 29.46 in 8.0 mi WNW 3.5 mph - 0.03 in Rain Light Rain
4:47 PM 48.2 °F - 42.8 °F 82% 29.46 in 10.0 mi WSW 2.3 mph - N/A Rain Light Rain Showers
4:55 PM 46.9 °F - 43.0 °F 86% 29.46 in 10.0 mi SSW 2.3 mph - N/A Rain Light Rain Showers
5:55 PM 46.2 °F - 44.1 °F 92% 29.47 in 9.0 mi Variable 2.3 mph - 0.02 in Rain Light Rain
6:07 PM 46.4 °F - 44.6 °F 93% 29.47 in 6.0 mi Variable 1.2 mph - N/A Rain Light Rain
6:55 PM 46.0 °F - 43.3 °F 90% 29.47 in 10.0 mi North 2.3 mph - 0.02 in Rain Light Rain
7:55 PM 47.5 °F - 44.4 °F 89% 29.47 in 10.0 mi ENE 4.6 mph - N/A Rain Light Rain Showers
8:47 PM 48.2 °F - 44.6 °F 87% 29.48 in 10.0 mi Variable 2.3 mph - N/A   Mostly Cloudy
8:55 PM 47.7 °F - 45.0 °F 90% 29.48 in 10.0 mi Variable 1.2 mph - N/A   Mostly Cloudy
9:07 PM 48.2 °F - 44.6 °F 87% 29.48 in 10.0 mi Variable 1.2 mph - N/A   Mostly Cloudy
9:27 PM 48.2 °F - 44.6 °F 87% 29.48 in 10.0 mi NE 4.6 mph - N/A   Mostly Cloudy
9:55 PM 47.7 °F - 45.9 °F 93% 29.49 in 10.0 mi NNE 6.9 mph - 0.00 in   Mostly Cloudy
10:27 PM 46.4 °F 41.1 °F 44.6 °F 93% 29.49 in 10.0 mi NNE 11.5 mph - N/A   Mostly Cloudy
10:47 PM 46.4 °F 40.7 °F 44.6 °F 93% 29.49 in 10.0 mi NNE 12.7 mph - N/A   Light Drizzle
10:55 PM 46.4 °F 40.7 °F 45.5 °F 97% 29.49 in 10.0 mi NNE 12.7 mph - N/A   Light Drizzle
11:47 PM 46.4 °F 40.1 °F 44.6 °F 93% 29.49 in 10.0 mi NNE 15.0 mph - N/A Rain Light Rain Showers
11:55 PM 45.7 °F 39.1 °F 45.3 °F 99% 29.49 in 10.0 mi NNE 15.0 mph - N/A Rain Light Rain Showers